Location: Stilling
(56.0622°N, 9.9882°E)
Time: 13:22:39
(UTC+00:00)

Cosmos 2219 Rocket - Pass Details

Date: 13 July 2020
Orbit: 827 x 848 km, 71.0° (Epoch: 07 August)

Event Time Altitude Azimuth Distance (km) Brightness Sun altitude
Rises 21:49:28 0° 253° (WSW) 3,373 5.4 -9.6°
Reaches altitude 10° 21:52:10 10° 264° (W) 2,445 4.8 -9.8°
Maximum altitude 21:57:09 32° 326° (NW) 1,420 4.3 -10.0°
Drops below altitude 10° 22:02:10 10° 29° (NNE) 2,466 5.2 -10.3°
Sets 22:04:54 0° 39° (NE) 3,407 5.8 -10.4°
